GW1094 Weather Reports


time (UTC)temp
C
wind
direction
speed
KPH
gust
KPH
rain 1hr
cm
rain 24hr
cm
rain mn
cm
humidity
%
barometer
mb
20260509124102 10 150 1.6 1.6 0.00 0.00 0.00 71 4083.6
20260509123600 10 155 3.2 3.2 0.00 0.00 0.00 72 4083.9
20260509123057 10 158 0.0 0.0 0.00 0.00 0.00 72 4083.9
20260509122553 10 158 0.0 0.0 0.00 0.00 0.00 73 4083.9
20260509122050 10 158 3.2 3.2 0.00 0.00 0.00 73 4083.9
20260509121546 10 126 0.0 0.0 0.00 0.00 0.00 71 4083.9
20260509121048 10 125 0.0 1.6 0.00 0.00 0.00 72 4083.9
20260509120542 10 127 0.0 1.6 0.00 0.00 0.00 72 4083.6
20260509120040 9 139 1.6 1.6 0.00 0.00 0.00 73 4083.9
20260509115537 9 141 4.8 4.8 0.00 0.00 0.00 75 4083.9
20260509115035 9 115 6.4 8.0 0.00 0.00 0.00 75 4084.3
20260509114532 8 141 4.8 8.0 0.00 0.00 0.00 76 4084.3
20260509114031 9 143 8.0 8.0 0.00 0.00 0.00 76 4084.3
20260509113529 9 138 6.4 11.3 0.00 0.00 0.00 74 4083.9
20260509113027 9 139 4.8 4.8 0.00 0.00 0.00 72 4083.9
20260509112523 9 136 6.4 8.0 0.00 0.00 0.00 72 4083.9
20260509112020 9 127 3.2 4.8 0.00 0.00 0.00 71 4084.3
20260509111517 9 134 8.0 8.0 0.00 0.00 0.00 72 4084.3
20260509111014 9 129 8.0 9.7 0.00 0.00 0.00 73 4084.3
20260509110510 9 126 6.4 8.0 0.00 0.00 0.00 71 4084.3
20260509110008 8 127 3.2 3.2 0.00 0.00 0.00 75 4084.6
20260509105506 8 125 1.6 3.2 0.00 0.00 0.00 77 4084.3
20260509105003 8 130 4.8 4.8 0.00 0.00 0.00 81 4084.3
20260509104500 8 173 4.8 4.8 0.00 0.00 0.00 81 4084.6
20260509103957 8 168 4.8 4.8 0.00 0.00 0.00 80 4084.3
20260509103455 8 198 8.0 9.7 0.00 0.00 0.00 79 4084.9
20260509102953 8 148 0.0 1.6 0.00 0.00 0.00 77 4084.3
20260509102450 8 154 9.7 11.3 0.00 0.00 0.00 74 4084.6
20260509101946 8 165 9.7 11.3 0.00 0.00 0.00 76 4084.6
20260509101442 8 143 8.0 9.7 0.00 0.00 0.00 75 4084.6
20260509100940 7 143 8.0 9.7 0.00 0.00 0.00 77 4084.9
20260509100437 7 132 4.8 4.8 0.00 0.00 0.00 78 4085.3
20260509095933 7 122 8.0 9.7 0.00 0.00 0.00 76 4084.9
20260509095430 8 132 6.4 8.0 0.00 0.00 0.00 77 4085.3
20260509094928 8 135 6.4 8.0 0.00 0.00 0.00 77 4085.3
20260509094424 8 114 8.0 9.7 0.00 0.00 0.00 75 4085.3
20260509093922 8 131 1.6 1.6 0.00 0.00 0.00 74 4085.3
20260509093419 8 127 4.8 4.8 0.00 0.00 0.00 73 4085.6
20260509092917 8 132 4.8 4.8 0.00 0.00 0.00 75 4085.6
20260509092415 8 137 6.4 8.0 0.00 0.00 0.00 75 4085.6
20260509091913 8 121 4.8 4.8 0.00 0.00 0.00 74 4085.6
20260509091409 8 143 8.0 9.7 0.00 0.00 0.00 75 4086.0
20260509090907 8 143 6.4 8.0 0.00 0.00 0.00 75 4086.0
20260509090404 8 136 9.7 11.3 0.00 0.00 0.00 74 4085.6
20260509085902 8 144 8.0 9.7 0.00 0.00 0.00 74 4085.6
20260509085359 8 131 4.8 4.8 0.00 0.00 0.00 74 4086.0
20260509084854 8 118 4.8 4.8 0.00 0.00 0.00 72 4086.0
20260509084351 8 118 0.0 0.0 0.00 0.00 0.00 73 4086.0
20260509083849 8 118 0.0 1.6 0.00 0.00 0.00 73 4086.0
20260509083346 8 116 1.6 1.6 0.00 0.00 0.00 73 4086.3
20260509082842 8 142 3.2 4.8 0.00 0.00 0.00 73 4086.0
20260509082339 8 112 6.4 9.7 0.00 0.00 0.00 73 4086.3
20260509081837 8 105 1.6 1.6 0.00 0.00 0.00 73 4086.3
20260509081334 8 121 1.6 1.6 0.00 0.00 0.00 72 4086.3
20260509080832 8 124 0.0 1.6 0.00 0.00 0.00 73 4086.3
20260509080329 8 134 0.0 0.0 0.00 0.00 0.00 73 4086.6
20260509075827 8 110 1.6 1.6 0.00 0.00 0.00 74 4086.6
20260509075324 8 135 0.0 0.0 0.00 0.00 0.00 74 4086.6
20260509074821 8 120 3.2 4.8 0.00 0.00 0.00 73 4087.0
20260509074319 8 107 4.8 4.8 0.00 0.00 0.00 72 4087.0
20260509073815 8 129 4.8 4.8 0.00 0.00 0.00 71 4087.0
20260509073312 8 137 11.3 12.9 0.00 0.00 0.00 71 4087.0
20260509072808 8 107 6.4 9.7 0.00 0.00 0.00 73 4087.0
20260509072306 7 123 1.6 3.2 0.00 0.00 0.00 74 4087.3
20260509071801 7 136 4.8 4.8 0.00 0.00 0.00 74 4087.0
20260509071258 7 126 3.2 3.2 0.00 0.00 0.00 74 4087.6
20260509070755 7 126 4.8 4.8 0.00 0.00 0.00 74 4087.3
20260509070252 7 114 1.6 3.2 0.00 0.00 0.00 74 4087.6
20260509065748 7 116 1.6 3.2 0.00 0.00 0.00 73 4087.6
20260509065245 7 106 1.6 1.6 0.00 0.00 0.00 76 4088.0
20260509064741 7 96 0.0 1.6 0.00 0.00 0.00 76 4087.6
20260509064239 6 115 1.6 3.2 0.00 0.00 0.00 78 4088.0
20260509063736 6 120 1.6 3.2 0.00 0.00 0.00 78 4088.3
20260509063232 6 121 0.0 1.6 0.00 0.00 0.00 77 4088.0
20260509062730 6 111 0.0 0.0 0.00 0.00 0.00 77 4088.3
20260509062226 6 117 0.0 0.0 0.00 0.00 0.00 77 4088.7
20260509061724 6 120 0.0 0.0 0.00 0.00 0.00 77 4088.7
20260509061221 6 119 0.0 1.6 0.00 0.00 0.00 76 4088.7
20260509060719 6 117 0.0 0.0 0.00 0.00 0.00 77 4088.7
20260509060214 6 117 1.6 1.6 0.00 0.00 0.00 76 4088.7
20260509055710 6 126 1.6 3.2 0.00 0.00 0.00 76 4089.1
20260509055206 6 119 0.0 0.0 0.00 0.00 0.00 75 4089.1
20260509054703 6 117 0.0 1.6 0.00 0.00 0.00 76 4089.1
20260509054201 6 109 0.0 0.0 0.00 0.00 0.00 76 4089.4
20260509053659 7 106 0.0 0.0 0.00 0.00 0.00 76 4089.1
20260509053155 7 98 1.6 1.6 0.00 0.00 0.00 75 4089.4
20260509052653 6 121 1.6 3.2 0.00 0.00 0.00 76 4089.4
20260509052151 7 122 1.6 1.6 0.00 0.00 0.00 76 4089.4
20260509051648 7 114 1.6 3.2 0.00 0.00 0.00 75 4089.8
20260509051145 7 113 0.0 1.6 0.00 0.00 0.00 76 4089.8
20260509050642 7 114 0.0 0.0 0.00 0.00 0.00 76 4089.8
20260509050139 7 114 1.6 1.6 0.00 0.00 0.00 76 4090.1
20260509045637 7 119 0.0 0.0 0.00 0.00 0.00 78 4089.8
20260509045133 7 120 1.6 1.6 0.00 0.00 0.00 77 4090.1
20260509044630 7 121 0.0 0.0 0.00 0.00 0.00 76 4090.1
20260509044128 7 121 0.0 0.0 0.00 0.00 0.00 74 4090.5
20260509043624 7 129 0.0 1.6 0.00 0.00 0.00 75 4090.5
20260509043120 7 125 0.0 0.0 0.00 0.00 0.00 74 4090.5
20260509042617 7 122 1.6 3.2 0.00 0.00 0.00 74 4090.5
20260509042112 7 109 0.0 0.0 0.00 0.00 0.00 76 4090.5
20260509041609 7 109 0.0 0.0 0.00 0.00 0.00 76 4090.8
20260509041107 7 109 0.0 0.0 0.00 0.00 0.00 77 4090.8
20260509040605 7 109 0.0 0.0 0.00 0.00 0.00 77 4090.8
20260509035558 7 109 1.6 1.6 0.00 0.00 0.00 75 4090.8
20260509035055 7 108 0.0 0.0 0.00 0.00 0.00 76 4090.8
20260509034553 7 108 0.0 0.0 0.00 0.00 0.00 76 4091.1
20260509034050 7 108 0.0 0.0 0.00 0.00 0.00 75 4091.1
20260509033547 7 108 0.0 0.0 0.00 0.00 0.00 75 4091.1
20260509033044 7 119 3.2 4.8 0.00 0.00 0.00 73 4091.1
20260509032541 7 121 0.0 0.0 0.00 0.00 0.00 74 4091.1
20260509032038 7 121 1.6 3.2 0.00 0.00 0.00 73 4091.1
20260509031536 7 118 1.6 3.2 0.00 0.00 0.00 72 4091.5
20260509031033 7 121 0.0 0.0 0.00 0.00 0.00 75 4091.5
20260509030531 7 121 0.0 0.0 0.00 0.00 0.00 73 4091.5
20260509030027 7 120 0.0 0.0 0.00 0.00 0.00 73 4091.8
20260509025523 7 120 0.0 0.0 0.00 0.00 0.00 72 4091.5
20260509025019 7 122 0.0 0.0 0.00 0.00 0.00 73 4091.5
20260509024516 7 126 0.0 1.6 0.00 0.00 0.00 71 4091.5
20260509024012 7 129 0.0 0.0 0.00 0.00 0.00 73 4091.5
20260509023509 7 137 0.0 0.0 0.00 0.00 0.00 72 4091.5
20260509023006 7 139 0.0 0.0 0.00 0.00 0.00 72 4091.5
20260509022503 7 106 1.6 1.6 0.00 0.00 0.00 73 4091.5
20260509022000 7 134 1.6 1.6 0.00 0.00 0.00 72 4091.5
20260509021457 7 117 0.0 0.0 0.00 0.00 0.00 72 4091.5
20260509020954 6 128 0.0 0.0 0.00 0.00 0.00 73 4091.5
20260509020453 6 130 0.0 0.0 0.00 0.00 0.00 75 4091.5
20260509015949 6 131 0.0 0.0 0.00 0.00 0.00 75 4091.5
20260509015448 6 152 0.0 0.0 0.00 0.00 0.00 77 4091.5
20260509014944 6 152 0.0 0.0 0.00 0.00 0.00 78 4091.5
20260509014441 6 152 0.0 0.0 0.00 0.00 0.00 80 4091.5
20260509013937 6 152 0.0 0.0 0.00 0.00 0.00 81 4091.5
20260509013435 6 152 0.0 0.0 0.00 0.00 0.00 81 4091.5
20260509012930 6 152 0.0 0.0 0.00 0.00 0.00 80 4091.5
20260509012427 6 152 0.0 0.0 0.00 0.00 0.00 79 4091.5
20260509011924 6 152 0.0 0.0 0.00 0.00 0.00 78 4091.5
20260509011421 6 152 0.0 0.0 0.00 0.00 0.00 77 4091.5
20260509010919 6 152 0.0 0.0 0.00 0.00 0.00 76 4091.5
20260509010416 6 152 0.0 0.0 0.00 0.00 0.00 76 4091.5
20260509005913 7 152 0.0 0.0 0.00 0.00 0.00 75 4091.5
20260509005411 7 153 0.0 0.0 0.00 0.00 0.00 76 4091.5
20260509004911 7 154 0.0 0.0 0.00 0.00 0.00 75 4091.5
20260509004408 7 154 0.0 0.0 0.00 0.00 0.00 74 4091.5
20260509003906 7 154 0.0 0.0 0.00 0.00 0.00 74 4091.5
20260509003403 8 164 0.0 0.0 0.00 0.00 0.00 74 4091.5
20260509002900 8 176 0.0 0.0 0.00 0.00 0.00 76 4091.5
20260509002358 8 177 1.6 3.2 0.00 0.00 0.00 76 4091.5
20260509001855 8 178 0.0 0.0 0.00 0.00 0.00 74 4091.5
20260509001351 8 117 4.8 4.8 0.00 0.00 0.00 78 4091.5
20260509000848 8 112 0.0 0.0 0.00 0.00 0.00 71 4091.5
20260509000348 8 113 0.0 0.0 0.00 0.00 0.00 75 4091.5
20260508235842 10 112 1.6 3.2 0.00 0.00 0.00 71 4091.5
20260508235339 10 52 0.0 0.0 0.00 0.00 0.00 60 4091.5
20260508234836 10 51 0.0 0.0 0.00 0.00 0.00 60 4091.8
20260508234333 10 20 1.6 3.2 0.00 0.00 0.00 59 4091.5
20260508233831 10 36 0.0 0.0 0.00 0.00 0.00 61 4091.8
20260508233330 10 37 0.0 0.0 0.00 0.00 0.00 62 4091.8
20260508232827 10 44 0.0 1.6 0.00 0.00 0.00 64 4091.8
20260508232323 10 327 1.6 1.6 0.00 0.00 0.00 63 4091.8
20260508231822 10 354 0.0 0.0 0.00 0.00 0.00 62 4091.8
20260508231317 10 13 0.0 1.6 0.00 0.00 0.00 63 4091.8
20260508230814 10 52 4.8 4.8 0.00 0.00 0.00 63 4091.8
20260508230311 10 355 3.2 4.8 0.00 0.00 0.00 62 4091.8
20260508225809 10 316 1.6 3.2 0.00 0.00 0.00 67 4091.8
20260508225306 10 337 0.0 0.0 0.00 0.00 0.00 67 4092.1
20260508224803 10 5 0.0 1.6 0.00 0.00 0.00 67 4092.1
20260508224300 11 44 1.6 3.2 0.00 0.00 0.00 65 4091.8
20260508223758 11 19 0.0 1.6 0.00 0.00 0.00 63 4091.8
20260508223255 11 356 1.6 3.2 0.00 0.00 0.00 61 4092.1
20260508222752 11 16 1.6 1.6 0.00 0.00 0.00 61 4092.1
20260508222249 11 57 0.0 1.6 0.00 0.00 0.00 61 4091.8
20260508221746 11 29 1.6 3.2 0.00 0.00 0.00 60 4092.1
20260508221242 12 111 1.6 3.2 0.00 0.00 0.00 60 4092.1
20260508220738 11 66 0.0 1.6 0.00 0.00 0.00 60 4092.1
20260508220234 11 339 1.6 1.6 0.00 0.00 0.00 59 4092.5
20260508215731 11 347 3.2 3.2 0.00 0.00 0.00 58 4092.5
20260508215227 12 325 1.6 3.2 0.00 0.00 0.00 59 4092.1
20260508214725 12 161 0.0 1.6 0.00 0.00 0.00 60 4092.5
20260508214222 12 208 0.0 1.6 0.00 0.00 0.00 60 4092.5
20260508213718 12 12 0.0 0.0 0.00 0.00 0.00 61 4092.5
20260508213215 11 301 0.0 1.6 0.00 0.00 0.00 63 4092.5
20260508212712 11 170 1.6 3.2 0.00 0.00 0.00 64 4092.1
20260508212208 11 318 1.6 1.6 0.00 0.00 0.00 66 4092.5
20260508211703 11 62 0.0 0.0 0.00 0.00 0.00 67 4092.5
20260508211159 11 293 1.6 1.6 0.00 0.00 0.00 68 4092.5
20260508210657 11 75 1.6 1.6 0.00 0.00 0.00 70 4092.5
20260508210154 10 55 1.6 3.2 0.00 0.00 0.00 72 4092.5
20260508205651 11 334 1.6 1.6 0.00 0.00 0.00 75 4092.8
20260508205147 10 140 1.6 1.6 0.00 0.00 0.00 77 4092.8
20260508204643 10 323 1.6 1.6 0.00 0.00 0.00 78 4092.5
20260508204140 10 75 1.6 3.2 0.00 0.00 0.00 79 4092.8
20260508203636 10 90 1.6 1.6 0.00 0.00 0.00 79 4092.5
20260508203132 10 123 1.6 1.6 0.00 0.00 0.00 80 4092.5
20260508202629 9 293 1.6 1.6 0.00 0.00 0.00 83 4092.8
20260508202126 10 343 3.2 8.0 0.00 0.00 0.00 81 4092.8
20260508201623 10 52 0.0 1.6 0.00 0.00 0.00 79 4092.8
20260508201119 10 234 1.6 1.6 0.00 0.00 0.00 81 4092.8
20260508200616 10 90 1.6 1.6 0.00 0.00 0.00 75 4093.2
20260508200112 10 236 1.6 3.2 0.00 0.00 0.00 79 4093.2
20260508195609 10 50 4.8 4.8 0.00 0.00 0.00 77 4093.2
20260508195105 10 255 1.6 3.2 0.00 0.00 0.00 80 4093.2
20260508194602 10 224 1.6 1.6 0.00 0.00 0.00 80 4093.5
20260508194059 10 216 1.6 3.2 0.00 0.00 0.00 81 4093.5
20260508193555 10 63 4.8 4.8 0.00 0.00 0.00 80 4093.5
20260508193053 10 221 4.8 4.8 0.00 0.00 0.00 80 4093.5
20260508192549 10 82 1.6 1.6 0.00 0.00 0.00 77 4093.5
20260508192046 11 198 3.2 3.2 0.00 0.00 0.00 76 4093.5
20260508191543 11 233 0.0 1.6 0.00 0.00 0.00 77 4093.8
20260508191040 10 191 3.2 4.8 0.00 0.00 0.00 78 4093.8
20260508190537 10 282 1.6 3.2 0.00 0.00 0.00 79 4093.8
20260508190033 10 203 3.2 4.8 0.00 0.00 0.00 77 4093.8
20260508185531 10 162 0.0 1.6 0.00 0.00 0.00 76 4093.8
20260508185028 10 217 0.0 0.0 0.00 0.00 0.00 76 4093.8
20260508184525 10 163 1.6 1.6 0.00 0.00 0.00 78 4093.8
20260508184022 10 223 4.8 4.8 0.00 0.00 0.00 77 4093.8
20260508183519 10 204 3.2 3.2 0.00 0.00 0.00 77 4093.8
20260508183015 10 36 3.2 3.2 0.00 0.00 0.00 76 4093.8
20260508182511 10 157 3.2 3.2 0.00 0.00 0.00 78 4093.8
20260508182008 10 225 4.8 4.8 0.00 0.00 0.00 80 4093.8
20260508181503 10 230 4.8 4.8 0.00 0.00 0.00 82 4093.8
20260508181001 9 159 1.6 4.8 0.00 0.00 0.00 80 4093.8
20260508180457 9 219 1.6 3.2 0.00 0.00 0.00 82 4093.8
20260508175953 9 135 3.2 4.8 0.00 0.00 0.00 82 4094.2
20260508175450 9 59 0.0 0.0 0.00 0.00 0.00 82 4094.2
20260508174948 10 50 0.0 0.0 0.00 0.00 0.00 82 4094.2
20260508174445 10 240 3.2 4.8 0.00 0.00 0.00 86 4094.2
20260508173942 10 138 1.6 1.6 0.00 0.00 0.00 84 4094.2
20260508173439 9 231 4.8 8.0 0.00 0.00 0.00 83 4094.2
20260508172935 10 226 3.2 3.2 0.00 0.00 0.00 82 4094.5
20260508172433 9 134 1.6 1.6 0.00 0.00 0.00 83 4094.5
20260508171929 8 84 0.0 0.0 0.00 0.00 0.00 82 4094.5
20260508171425 8 165 1.6 1.6 0.00 0.00 0.00 85 4094.5
20260508170922 8 143 0.0 1.6 0.00 0.00 0.00 83 4094.2
20260508170419 9 189 1.6 4.8 0.00 0.00 0.00 81 4094.2
20260508165915 9 113 0.0 1.6 0.00 0.00 0.00 82 4094.5
20260508165414 8 78 1.6 3.2 0.00 0.00 0.00 82 4094.5
20260508164909 8 225 3.2 3.2 0.00 0.00 0.00 83 4094.5
20260508164407 8 16 1.6 3.2 0.00 0.00 0.00 83 4094.9
20260508163904 7 49 1.6 1.6 0.00 0.00 0.00 85 4094.9
20260508163402 7 327 4.8 4.8 0.00 0.00 0.00 84 4094.9
20260508162857 7 29 3.2 4.8 0.00 0.00 0.00 84 4094.9
20260508162354 8 60 3.2 3.2 0.00 0.00 0.00 83 4094.9
20260508161851 7 58 3.2 3.2 0.00 0.00 0.00 83 4094.9
20260508161349 7 70 1.6 1.6 0.00 0.00 0.00 85 4094.9
20260508160846 7 45 3.2 4.8 0.00 0.00 0.00 85 4094.9
20260508160344 7 350 4.8 8.0 0.00 0.00 0.00 85 4094.9
20260508155840 7 359 3.2 3.2 0.00 0.00 0.00 85 4094.9
20260508155338 7 350 4.8 8.0 0.00 0.00 0.00 84 4095.2
20260508154834 7 349 8.0 9.7 0.00 0.00 0.00 84 4095.2
20260508154332 7 351 4.8 4.8 0.00 0.00 0.00 85 4095.2
20260508153828 7 25 3.2 3.2 0.00 0.00 0.00 85 4095.5
20260508153326 7 85 1.6 1.6 0.00 0.00 0.00 86 4095.2
20260508152821 7 356 4.8 8.0 0.00 0.00 0.00 84 4095.2
20260508152318 7 357 4.8 8.0 0.00 0.00 0.00 84 4095.2
20260508151815 7 90 0.0 1.6 0.00 0.00 0.00 84 4095.5
20260508151312 7 109 0.0 1.6 0.00 0.00 0.00 84 4095.5
20260508150808 8 200 3.2 3.2 0.00 0.00 0.00 84 4095.2
20260508150305 8 200 3.2 4.8 0.00 0.00 0.00 82 4095.5
20260508145802 8 208 3.2 4.8 0.00 0.00 0.00 83 4095.5
20260508145257 8 179 1.6 3.2 0.00 0.00 0.00 83 4095.5
20260508144754 7 219 3.2 3.2 0.00 0.00 0.00 85 4095.5
20260508144252 8 217 0.0 1.6 0.00 0.00 0.00 86 4095.5
20260508143749 8 202 3.2 3.2 0.00 0.00 0.00 84 4095.5
20260508143246 7 213 0.0 0.0 0.00 0.00 0.00 83 4095.5
20260508142742 6 219 1.6 3.2 0.00 0.00 0.00 84 4095.5
20260508142239 6 217 4.8 4.8 0.00 0.00 0.00 81 4095.5
20260508141736 6 215 3.2 3.2 0.00 0.00 0.00 82 4095.5
20260508141234 6 214 4.8 4.8 0.00 0.00 0.00 82 4095.9
20260508140731 6 193 3.2 4.8 0.00 0.00 0.00 83 4095.9
20260508140227 6 192 1.6 1.6 0.00 0.00 0.00 86 4095.9
20260508135723 6 191 3.2 3.2 0.00 0.00 0.00 88 4095.9
20260508135219 6 191 1.6 1.6 0.00 0.00 0.00 88 4095.9
20260508134710 6 191 1.6 1.6 0.00 0.00 0.00 88 4095.5
20260508134207 6 191 1.6 3.2 0.00 0.00 0.00 87 4095.9
20260508133704 5 191 1.6 1.6 0.00 0.00 0.00 88 4095.9
20260508133201 5 191 3.2 3.2 0.00 0.00 0.00 88 4095.9
20260508132659 5 191 1.6 1.6 0.00 0.00 0.00 88 4095.9
20260508132156 5 191 1.6 1.6 0.00 0.00 0.00 91 4095.9
20260508131651 5 191 0.0 0.0 0.00 0.00 0.00 93 4095.9
20260508131148 5 191 1.6 1.6 0.00 0.00 0.00 92 4095.9
20260508130645 5 191 3.2 3.2 0.00 0.00 0.00 92 4095.9
20260508130142 5 192 0.0 1.6 0.00 0.00 0.00 92 4095.9
20260508125637 4 192 3.2 3.2 0.00 0.00 0.00 93 4095.9
20260508125134 4 193 3.2 3.2 0.00 0.00 0.00 94 4095.9
20260508124632 4 194 1.6 3.2 0.00 0.00 0.00 94 4095.9